TimeEDT,TemperatureF,Dew PointF,Humidity,Sea Level PressureIn,VisibilityMPH,Wind Direction,Wind SpeedMPH,Gust SpeedMPH,PrecipitationIn,Events,Conditions,WindDirDegrees,DateUTC
12:54 AM,27.0,15.1,61,30.06,10.0,West,12.7,-,N/A,,Partly Cloudy,270,2013-03-20 04:54:00
1:54 AM,28.0,14.0,56,30.05,10.0,West,17.3,21.9,N/A,,Overcast,280,2013-03-20 05:54:00
2:54 AM,27.0,14.0,58,30.03,10.0,WNW,11.5,-,N/A,,Overcast,290,2013-03-20 06:54:00
3:54 AM,26.1,12.9,58,30.03,10.0,WNW,15.0,-,N/A,,Overcast,290,2013-03-20 07:54:00
4:54 AM,24.1,12.0,60,30.01,10.0,WNW,15.0,-,N/A,,Partly Cloudy,300,2013-03-20 08:54:00
5:54 AM,23.0,10.9,60,30.01,10.0,WNW,13.8,-,N/A,,Mostly Cloudy,290,2013-03-20 09:54:00
6:09 AM,23.0,10.4,59,29.98,10.0,WNW,16.1,26.5,N/A,,Overcast,290,2013-03-20 10:09:00
6:54 AM,23.0,10.9,60,30.02,10.0,WNW,13.8,-,N/A,,Overcast,290,2013-03-20 10:54:00
7:54 AM,21.9,10.9,63,30.04,10.0,WNW,12.7,21.9,N/A,,Overcast,300,2013-03-20 11:54:00
8:54 AM,21.9,10.9,63,30.05,8.0,WNW,15.0,23.0,0.00,Snow,Light Snow,300,2013-03-20 12:54:00
9:23 AM,21.2,10.4,63,30.02,6.0,West,16.1,24.2,0.00,Snow,Light Snow,280,2013-03-20 13:23:00
9:54 AM,21.9,10.9,63,30.05,9.0,WNW,15.0,23.0,0.00,Snow,Light Snow,300,2013-03-20 13:54:00
10:15 AM,21.2,12.2,68,30.02,6.0,WNW,18.4,23.0,0.00,Snow,Light Snow,290,2013-03-20 14:15:00
10:43 AM,21.2,10.4,63,30.02,8.0,WNW,15.0,24.2,0.00,Snow,Light Snow,300,2013-03-20 14:43:00
10:54 AM,21.0,10.0,63,30.05,8.0,West,16.1,26.5,0.00,Snow,Light Snow,280,2013-03-20 14:54:00
11:54 AM,19.9,8.1,60,30.06,8.0,WNW,17.3,-,0.00,Snow,Light Snow,290,2013-03-20 15:54:00
12:50 PM,21.2,6.8,54,30.03,10.0,WNW,20.7,-,0.00,,Overcast,290,2013-03-20 16:50:00
12:54 PM,21.0,7.0,55,30.06,10.0,WNW,17.3,-,0.00,,Overcast,290,2013-03-20 16:54:00
1:54 PM,21.0,7.0,55,30.06,10.0,NW,17.3,24.2,0.00,,Overcast,310,2013-03-20 17:54:00
2:54 PM,23.0,8.1,53,30.04,10.0,West,15.0,-,N/A,,Overcast,280,2013-03-20 18:54:00
3:54 PM,21.9,6.1,51,30.03,10.0,West,15.0,-,N/A,,Mostly Cloudy,270,2013-03-20 19:54:00
4:54 PM,23.0,6.1,48,30.03,10.0,WNW,13.8,-,N/A,,Overcast,290,2013-03-20 20:54:00
5:54 PM,21.9,8.1,55,30.03,8.0,WNW,10.4,21.9,0.00,Snow,Light Snow,290,2013-03-20 21:54:00
6:54 PM,21.0,10.9,65,30.04,2.0,NW,12.7,19.6,0.00,Snow,Light Snow,320,2013-03-20 22:54:00
7:05 PM,21.2,10.4,63,30.00,9.0,WNW,12.7,-,0.00,,Overcast,300,2013-03-20 23:05:00
7:49 PM,21.2,10.4,63,30.00,3.0,WNW,11.5,-,0.00,Snow,Light Snow,290,2013-03-20 23:49:00
7:54 PM,21.0,12.0,68,30.04,3.0,WNW,13.8,-,0.00,Snow,Light Snow,290,2013-03-20 23:54:00
8:17 PM,19.4,14.0,80,30.01,1.8,WNW,13.8,-,0.00,Snow,Light Snow,300,2013-03-21 00:17:00
8:36 PM,19.4,14.0,80,30.00,3.0,NW,8.1,-,0.00,Snow,Light Snow,310,2013-03-21 00:36:00
8:38 PM,19.4,15.8,86,30.01,1.8,NW,8.1,-,0.00,Snow,Light Snow,310,2013-03-21 00:38:00
8:54 PM,19.0,15.1,85,30.05,1.8,WNW,6.9,-,0.00,Snow,Light Snow,300,2013-03-21 00:54:00
9:29 PM,19.4,15.8,86,30.01,1.5,WNW,6.9,-,N/A,Snow,Light Snow,290,2013-03-21 01:29:00
9:54 PM,19.0,15.1,85,30.04,1.5,WNW,9.2,-,0.01,Snow,Light Snow,300,2013-03-21 01:54:00
9:59 PM,19.4,14.0,80,30.00,2.0,WNW,5.8,-,0.00,Snow,Light Snow,290,2013-03-21 01:59:00
10:09 PM,17.6,12.2,79,30.00,9.0,WNW,6.9,-,0.00,,Mostly Cloudy,290,2013-03-21 02:09:00
10:18 PM,19.4,12.2,74,30.00,10.0,NW,6.9,-,0.00,,Overcast,310,2013-03-21 02:18:00
10:39 PM,19.4,12.2,74,30.00,1.5,NW,12.7,-,0.00,Snow,Light Snow,320,2013-03-21 02:39:00
10:46 PM,19.4,14.0,80,30.00,0.8,NW,10.4,-,0.00,Snow,Light Snow,320,2013-03-21 02:46:00
10:54 PM,19.0,15.1,85,30.04,2.5,WNW,8.1,-,0.01,Snow,Light Snow,300,2013-03-21 02:54:00
11:54 PM,19.0,14.0,81,30.04,2.5,NW,8.1,-,0.00,Snow,Light Snow,320,2013-03-21 03:54:00